Regional Weather Roundup
Issued by NWS

Home | Current Version | Previous Version | Text Only | Print | Product List | Glossary On
Versions: 1 2 3 4 5 6 7 8 9 10 11 12 13 14 15 16 17 18 19 20 21 22 23 24 25 26 27 28 29 30 31 32 33 34 35 36 37 38 39 40 41 42 43 44 45 46 47 48 49 50
000
ASUS42 KFFC 121403
RWRGA
WEATHER ROUNDUP FOR GEORGIA
NATIONAL WEATHER SERVICE PEACHTREE CITY GA
1000 AM EDT SAT JUL 12 2014

NOTE: "FAIR" INDICATES FEW OR NO CLOUDS BELOW 12,000 FEET WITH NO
SIGNIFICANT WEATHER AND/OR OBSTRUCTIONS TO VISIBILITY.

* = USE WITH CAUTION. THE STATIONS MARKED WITH AN ASTERISK MAY NOT
REPORT WEATHER SUCH AS PRECIPITATION, FOG, OR THUNDER AND ARE NOT
QUALITY CONTROLLED BY NWS.

THE REMARK "TC" DENOTES TEMPERATURE READING IN DEGREES CELSIUS.

GAZ001>058-121500-
NORTH GEORGIA

CITY           SKY/WX    TMP DP  RH WIND       PRES   REMARKS
ATLANTA        CLOUDY    74  71  91 E6        30.24R FOG
ATHENS         SUNNY     80  71  74 E5        30.23R
CHAMBLEE       CLOUDY    74  70  87 CALM      30.24R FOG
PEACHTREE CITY CLOUDY    75  71  87 NE5       30.23R FOG
ROME           MOSUNNY   79  71  76 CALM      30.21R
WEST ATLANTA   CLOUDY    76  70  82 E6        30.23R
GAINESVILLE    CLOUDY    76  70  82 E5        30.26S
CARTERSVILLE   SUNNY     80  71  74 VRB3      30.22R


CITY           SKY/WX    TMP DP  RH WIND       PRES   REMARKS
DALTON*        SUNNY     79  72  78 S5        30.22S
LAWRENCEVILLE* PTSUNNY   75  66  73 E5        30.24R FOG
KENNESAW*      CLOUDY    75  72  88 E6        30.25R
$$

GAZ059>098-102>109-121500-
CENTRAL GEORGIA

CITY           SKY/WX    TMP DP  RH WIND       PRES   REMARKS
AUGUSTA-BUSH   MOSUNNY   80  73  79 SE5       30.20R
AUGUSTA-DANIEL MOSUNNY   82  72  71 NE5       30.22R
COLUMBUS       SUNNY     78  71  79 E5        30.19R
MACON          PTSUNNY   76  72  87 E5        30.21R


CITY           SKY/WX    TMP DP  RH WIND       PRES   REMARKS
LAGRANGE*      PTSUNNY   80  75  85 SE5       30.21R
SYLVANIA*      MOSUNNY   77  76  97 CALM      30.22S
MILLEDGEVILLE* SUNNY     79  70  73 CALM      30.21R
$$

GAZ099>101-110>166-121500-
SOUTH GEORGIA

CITY           SKY/WX    TMP DP  RH WIND       PRES   REMARKS
SAVANNAH       CLOUDY    76  72  87 CALM      30.20S
VALDOSTA       PTSUNNY   81  71  71 CALM      30.18S
ALMA           PTSUNNY   78  72  81 CALM      30.20R
ST SIMONS      CLOUDY    76  73  91 NW3       30.19R
ALBANY         SUNNY     82  72  71 VRB5      30.20R
BRUNSWICK      CLOUDY    77  73  88 CALM      30.20R


CITY           SKY/WX    TMP DP  RH WIND       PRES   REMARKS
BAINBRIDGE*    SUNNY     86  75  70 S6        30.17F HX  95
MOULTRIE*      SUNNY     79  73  83 CALM      30.19F
VIDALIA*         N/A     81  72  74 E8        30.20S
WAYCROSS*      PTSUNNY   82  76  82 NE3       30.20R
DOUGLAS*       PTSUNNY   79  70  73 E5        30.21S
$$


USA.gov is the U.S. government's official web portal to all federal, state and local government web resources and services.